STARLINK-11592, 63560

Orbit data source: Space-Track

STARLINK-11592, 63560 is a payload satellite owned by SpaceX/Seattle (US) in LEO that was launched on Sun, 13 Apr 2025 UTC via an FALCON 9 launch vehicle from the Air Force Eastern Test Range (AFETR). Payload-class satellites include a variety of spacecraft equipped with specific instruments for various scientific and technological missions. These include communications satellites like Starlink; space stations such as the ISS; scientific satellites like the Hubble; Earth observation satellites from companies like Planet Labs, Umbra, and HawkEye 360; GPS; miniature CubeSats for education and research; and military/defense satellites.

Loading next visibility...
Identifier
63560, 2025-075N
Orbit
LEO
Last TLE update
11 hours ago
Origin
Manufacturer
SpaceX/Seattle
Mission
Operational spacecraft
Bus & Motor
STARLINK V2M, Unknown motor
Mass
730 kg wet, ~700 kg dry
Launch date (UTC)
2025-04-13 (3 weeks ago)
Launch vehicle
FALCON 9
Launch site
Air Force Eastern Test Range (AFETR)
Object type
Payload
Rocket body
Debris
Shape & HBR
Unknown
Radar Cross Section
Large (>1 m²)

Expand to show TLE details & history

TLE from 11 hours ago
0 STARLINK-11592
1 63560U 25075N   25125.91667824 -.01015260  00000-0 -53519-2 0  9999
2 63560  43.0003 210.6704 0001917 284.2563 121.0659 15.82270251  4810
Epoch: 2025-05-05T22:00Z
Definitive object data (Epoch: 2025-05-05T22:00:00.999Z)
Latitude
29.13077°
Longitude
53.10212°
Altitude
325.1 km
Speed
7.718 km/s
True Right ascension
16h 28m 31s
True Declination
28° 58' 31"
Sunlit
Object was in full shadow at TLE epoch
Visualization TLE readout
Latitude
38.76327°
Longitude
72.80551°
Altitude
330.061 km
Speed
7.716 km/s
Apparent Right ascension
22h 22m 59s
Apparent Declination
4° 00' 05"
Sunlit
Object is in full shadow
Visualization observer readout
Local Sidereal Time
16:39:08
Azimuth
89.514° E
Elevation
5.662°
Doppler factor
1
Orbital elements
Apogee altitude
327.298 km
Perigee altitude
324.728 km
Semi-major axis
6,704.15 km
Eccentricity
0.0001917
Inclination
43.0003°
RAAN
210.6704°
Arg. of periapsis
284.2563°
True anomaly
121.08471°
Mean anomaly
121.0659°
Eccentric anomaly
121.07531°
Mean motion
3.95392 °/min
BSTAR
-0.0053519
Orbital period
91.05 mins
Loading maneuver chart data...
Loading SW <> Apogee altitude chart data...
Loading historical data...
Loading historical data...
Loading historical data...
Loading historical data...
Loading historical data...
Loading historical data...
Loading historical data...

STARLINK-11592 Visibility forecast

Observer location: undefined°, undefined°

Span
Click to sort rows by Start time (UTC) header in descending order
Start Az.
Max El. time (UTC)
Max El. Az.
Max El.
End time (UTC)
End Az.
5 mins2025-05-06 10:11:46.000Z255.094° W2025-05-06 10:13:46.000Z276.222° WNW43.085°2025-05-06 10:16:46.000Z70.806° E
4 mins2025-05-06 13:23:46.000Z291.984° WNW2025-05-06 13:25:46.000Z90.393° ESE39.768°2025-05-06 13:27:46.000Z104.183° ESE
|